| time (UTC) | temp F | wind direction | speed MPH | gust MPH | rain 1hr in | rain 24hr in | rain mn in | humidity % | barometer mb |
| 20260503200118 | 83 | 198 | 8.0 | 22.0 | 0.00 | 0.00 | 0.00 | 20 | 1013.2 |
| 20260503194603 | 83 | 163 | 7.0 | 18.0 | 0.00 | 0.00 | 0.00 | 22 | 1013.2 |
| 20260503193102 | 83 | 233 | 7.0 | 16.0 | 0.00 | 0.00 | 0.00 | 22 | 1013.5 |
| 20260503191604 | 82 | 177 | 6.0 | 15.0 | 0.00 | 0.00 | 0.00 | 24 | 1014.1 |
| 20260503190056 | 82 | 98 | 6.0 | 15.0 | 0.00 | 0.00 | 0.00 | 26 | 1014.4 |
| 20260503184613 | 80 | 100 | 8.0 | 17.0 | 0.00 | 0.00 | 0.00 | 28 | 1014.4 |
| 20260503183056 | 80 | 115 | 7.0 | 14.0 | 0.00 | 0.00 | 0.00 | 28 | 1014.7 |
| 20260503181612 | 81 | 82 | 4.0 | 15.0 | 0.00 | 0.00 | 0.00 | 28 | 1014.8 |
| 20260503180115 | 79 | 120 | 5.0 | 12.0 | 0.00 | 0.00 | 0.00 | 29 | 1015.1 |
| 20260503174558 | 78 | 68 | 5.0 | 13.0 | 0.00 | 0.00 | 0.00 | 30 | 1015.5 |
| 20260503173106 | 77 | 166 | 5.0 | 14.0 | 0.00 | 0.00 | 0.00 | 31 | 1015.7 |
| 20260503171554 | 76 | 86 | 5.0 | 13.0 | 0.00 | 0.00 | 0.00 | 30 | 1015.9 |
| 20260503150107 | 68 | 34 | 2.0 | 5.0 | 0.00 | 0.00 | 0.00 | 30 | 1016.9 |
| 20260503100105 | 58 | 262 | 2.0 | 3.0 | 0.00 | 0.00 | 0.00 | 36 | 1016.0 |
| 20260503081553 | 63 | 0 | 1.0 | 4.0 | 0.00 | 0.00 | 0.00 | 30 | 1016.1 |
| 20260503080105 | 62 | 247 | 1.0 | 3.0 | 0.00 | 0.00 | 0.00 | 31 | 1016.3 |
| 20260503071600 | 63 | 254 | 1.0 | 3.0 | 0.00 | 0.00 | 0.00 | 29 | 1016.3 |
| 20260503054600 | 69 | 0 | 0.0 | 3.0 | 0.00 | 0.00 | 0.00 | 24 | 1015.9 |
| 20260503053056 | 71 | 15 | 1.0 | 5.0 | 0.00 | 0.00 | 0.00 | 23 | 1015.9 |
| 20260503051558 | 72 | 261 | 4.0 | 10.0 | 0.00 | 0.00 | 0.00 | 23 | 1015.8 |
| 20260503050056 | 72 | 239 | 6.0 | 14.0 | 0.00 | 0.00 | 0.00 | 23 | 1015.6 |
| 20260503044608 | 73 | 221 | 7.0 | 14.0 | 0.00 | 0.00 | 0.00 | 23 | 1015.3 |
| 20260503043101 | 73 | 202 | 6.0 | 11.0 | 0.00 | 0.00 | 0.00 | 23 | 1015.2 |
| 20260503041554 | 73 | 244 | 8.0 | 13.0 | 0.00 | 0.00 | 0.00 | 23 | 1015.0 |
| 20260503034602 | 73 | 254 | 6.0 | 13.0 | 0.00 | 0.00 | 0.00 | 22 | 1014.6 |
| 20260503033058 | 73 | 171 | 5.0 | 11.0 | 0.00 | 0.00 | 0.00 | 22 | 1014.6 |
| 20260503031555 | 73 | 229 | 4.0 | 11.0 | 0.00 | 0.00 | 0.00 | 21 | 1014.3 |
| 20260503030124 | 74 | 222 | 4.0 | 10.0 | 0.00 | 0.00 | 0.00 | 21 | 1014.1 |
| 20260503024604 | 74 | 209 | 5.0 | 11.0 | 0.00 | 0.00 | 0.00 | 20 | 1013.9 |
| 20260503023055 | 74 | 198 | 4.0 | 10.0 | 0.00 | 0.00 | 0.00 | 20 | 1013.7 |
| 20260503021605 | 74 | 212 | 3.0 | 8.0 | 0.00 | 0.00 | 0.00 | 19 | 1013.5 |
| 20260503020055 | 75 | 207 | 2.0 | 5.0 | 0.00 | 0.00 | 0.00 | 18 | 1013.5 |
| 20260503014604 | 76 | 236 | 3.0 | 6.0 | 0.00 | 0.00 | 0.00 | 17 | 1013.5 |
| 20260503013056 | 78 | 202 | 0.0 | 5.0 | 0.00 | 0.00 | 0.00 | 16 | 1013.5 |
| 20260503011600 | 80 | 151 | 0.0 | 5.0 | 0.00 | 0.00 | 0.00 | 15 | 1013.5 |
| 20260503010106 | 80 | 184 | 0.0 | 5.0 | 0.00 | 0.00 | 0.00 | 15 | 1013.5 |
| 20260503004555 | 79 | 206 | 1.0 | 5.0 | 0.00 | 0.00 | 0.00 | 15 | 1013.5 |
| 20260503003059 | 80 | 216 | 2.0 | 15.0 | 0.00 | 0.00 | 0.00 | 14 | 1013.7 |
| 20260503001555 | 81 | 105 | 3.0 | 9.0 | 0.00 | 0.00 | 0.00 | 14 | 1013.5 |
| 20260503000058 | 82 | 170 | 2.0 | 7.0 | 0.00 | 0.00 | 0.00 | 13 | 1013.6 |
| 20260502234559 | 82 | 101 | 2.0 | 8.0 | 0.00 | 0.00 | 0.00 | 13 | 1013.5 |
| 20260502233055 | 82 | 94 | 1.0 | 6.0 | 0.00 | 0.00 | 0.00 | 13 | 1013.5 |
| 20260502231606 | 82 | 256 | 1.0 | 10.0 | 0.00 | 0.00 | 0.00 | 12 | 1013.7 |
| 20260502230100 | 82 | 84 | 4.0 | 9.0 | 0.00 | 0.00 | 0.00 | 13 | 1014.0 |
| 20260502224557 | 83 | 14 | 2.0 | 10.0 | 0.00 | 0.00 | 0.00 | 12 | 1014.1 |
| 20260502223058 | 83 | 286 | 2.0 | 8.0 | 0.00 | 0.00 | 0.00 | 12 | 1014.4 |
| 20260502221559 | 81 | 76 | 2.0 | 13.0 | 0.00 | 0.00 | 0.00 | 12 | 1014.7 |
| 20260502220055 | 82 | 70 | 5.0 | 10.0 | 0.00 | 0.00 | 0.00 | 12 | 1014.8 |
| 20260502214559 | 82 | 114 | 5.0 | 15.0 | 0.00 | 0.00 | 0.00 | 12 | 1015.2 |
| 20260502213054 | 81 | 19 | 3.0 | 9.0 | 0.00 | 0.00 | 0.00 | 14 | 1015.4 |
| 20260502211601 | 82 | 110 | 2.0 | 9.0 | 0.00 | 0.00 | 0.00 | 14 | 1015.7 |
| 20260502210057 | 81 | 0 | 3.0 | 10.0 | 0.00 | 0.00 | 0.00 | 13 | 1016.1 |
| 20260502204611 | 81 | 71 | 5.0 | 11.0 | 0.00 | 0.00 | 0.00 | 14 | 1016.3 |
| 20260502203115 | 80 | 139 | 4.0 | 12.0 | 0.00 | 0.00 | 0.00 | 14 | 1016.6 |
| 20260502201557 | 79 | 130 | 3.0 | 7.0 | 0.00 | 0.00 | 0.00 | 16 | 1016.7 |